User: anonymous   Login
Location: ???????????
(54.5822°N, 39.1075°E)
Time: 11:21:06
(UTC+00:00)
Language:

COSMOS 2406 - Orbit

View from above orbital plane
View from above orbital plane
View from above satellite
View from above satellite

Ground track
Ground track

The orbit data is extracted from the following two-line orbital elements,

1 28352U 04021A   25198.13658716  .00000355  00000-0  21923-3 0  9992
2 28352  71.0050  79.6140 0010891 268.9095  91.0778 14.12116326 87419
Epoch (UTC): 17 July 2025 03:16:41
Eccentricity: 0.0010891
inclination: 71.0050°
perigee height: 844 km
apogee height: 860 km
right ascension of ascending node: 79.6140°
argument of perigee: 268.9095°
revolutions per day: 14.12116326
mean anomaly at epoch: 91.0778°
orbit number at epoch: 8741

The dashed part of the orbit path shows where the satellite is in the earth's shadow,  

DLR